INTERCOSMOS 25

Last updated on Sun Jun 21 2026 00:02:15 GMT+0000 (Coordinated Universal Time)

1 21819U 91086A 26171.16565212 .00000818 00000+0 16309-3 0 9998 2 21819 82.6051 248.0074 1483953 255.9628 87.2569 12.12199832509100
UTC large
Height (km)
Speed (km/s)
/
Latitude / Longitude
Inclination (degrees)
Orbital Period (minutes)
Azimuth
Elevation
Range (km)
Doppler Factor

Next 0 passes for location: London (51.5072 / 0.1276)

No passes found over London.
INTERCOSMOS 25